Location: Wanzleben
(52.0609°N, 11.4408°E)
Time: 22:32:25
(UTC+00:00)

Lacrosse 5 rocket - Visible Passes

Search period start: 23 January 2021 00:00
Search period end: 02 February 2021 00:00
Orbit: 461 x 634 km, 57.0° (Epoch: 23 January)

Date Brightness Start Highest point End Pass type
(mag) Time Alt. Az. Time Alt. Az. Time Alt. Az.
23 Jan 4.3 03:25:19 12° ESE 03:25:19 12° ESE 03:25:34 10° ESE visible
23 Jan 2.2 05:00:58 30° SW 05:00:58 30° SW 05:03:57 10° SSE visible
24 Jan 2.8 04:55:37 22° SSW 04:55:37 22° SSW 04:57:40 10° S visible
25 Jan 3.3 04:50:23 14° SSW 04:50:23 14° SSW 04:51:17 10° S visible
31 Jan 3.8 18:09:17 10° SSE 18:09:57 12° SSE 18:09:57 12° SSE visible
01 Feb 3.2 18:02:41 10° S 18:04:57 19° SSE 18:04:57 19° SSE visible
01 Feb 4.3 19:40:10 10° SW 19:40:38 13° SW 19:40:38 13° SW visible
